User: anonymous   Login
Location: Quaker Farms
(41.4276°N, 73.1557°W)
Time: 03:28:19
(UTC+00:00)
Language:

Altair - Orbit

View from above orbital plane
View from above orbital plane
View from above satellite
View from above satellite

Ground track
Ground track

The orbit data is extracted from the following two-line orbital elements,

1 00050U 60009B   21163.52038053 -.00000101  00000-0 -15491-3 0  9996
2 00050  47.2323  83.7409 0114364 318.8322  40.3884 12.20117126714186
Epoch (UTC): 12 June 2021 12:29:20
Eccentricity: 0.0114364
inclination: 47.2323°
perigee height: 1501 km
apogee height: 1683 km
right ascension of ascending node: 83.7409°
argument of perigee: 318.8322°
revolutions per day: 12.20117126
mean anomaly at epoch: 40.3884°
orbit number at epoch: 71418

The dashed part of the orbit path shows where the satellite is in the earth's shadow,  

DLR